This is the latest recevied weather packets stored in our database for station/object KK4XZ. If no packets are shown the sender has not sent any weather packets the latest 10 day(s).
| Time | Temp. | Humidity | Pressure | Rain* | Wind** | Luminosity | Snow |
|---|---|---|---|---|---|---|---|
| 1777503329 | 21.67° C | 84% | 1008.5 hPa | 0 mm | - | - | - |
| 1777502724 | 21.67° C | 84% | 1008.7 hPa | 0 mm | - | - | - |
| 1777502119 | 21.67° C | 83% | 1008.8 hPa | 0 mm | - | - | - |
| 1777501534 | 22.22° C | 82% | 1008.8 hPa | 0 mm | - | - | - |
| 1777500929 | 22.22° C | 83% | 1009 hPa | 0 mm | - | - | - |
| 1777500324 | 22.22° C | 82% | 1009.1 hPa | 0 mm | - | - | - |
| 1777499719 | 22.22° C | 83% | 1009.2 hPa | 0 mm | - | - | - |
| 1777499134 | 22.22° C | 83% | 1009.3 hPa | 0 mm | - | - | - |
| 1777498530 | 22.22° C | 82% | 1009.4 hPa | 0 mm | - | - | - |
| 1777497925 | 22.78° C | 80% | 1009.3 hPa | 0 mm | - | - | - |
| 1777497320 | 22.78° C | 80% | 1009.3 hPa | 0 mm | - | - | - |
| 1777496735 | 22.78° C | 80% | 1009.4 hPa | 0 mm | - | - | - |
| 1777496130 | 22.22° C | 83% | 1009.7 hPa | 0 mm | - | - | - |
| 1777495525 | 22.22° C | 83% | 1009.9 hPa | 0 mm | - | - | - |
| 1777494920 | 21.67° C | 85% | 1009.8 hPa | 0 mm | - | - | - |
| 1777494336 | 22.22° C | 84% | 1010.1 hPa | 0 mm | - | - | - |
| 1777493731 | 22.22° C | 84% | 1010.2 hPa | 0 mm | - | - | - |
| 1777493126 | 22.78° C | 84% | 1010.4 hPa | 0 mm | - | - | - |
| 1777492521 | 23.33° C | 80% | 1010.4 hPa | 0 mm | - | - | - |
| 1777491936 | 22.78° C | 83% | 1010.7 hPa | 0 mm | - | - | - |
| 1777491331 | 22.78° C | 82% | 1011 hPa | 0 mm | - | - | - |
| 1777490726 | 22.22° C | 82% | 1011.2 hPa | 0 mm | - | - | - |
| 1777490121 | 22.22° C | 81% | 1011.5 hPa | 0 mm | - | - | - |
| 1777489517 | 22.22° C | 81% | 1011.6 hPa | 0 mm | - | - | - |
| 1777488932 | 22.78° C | 79% | 1011.8 hPa | 0 mm | - | - | - |
* Rain latest hour (hover to see other rain measurements)
** Current wind speed in m/s (hover to see current wind gust speed)